Weather History for Concord, NH

Change the Weather History Date:

Sunday, December 4, 2011

  Actual Average Record
Temperature  
Mean Temperature 35 °F 31 °F  
Max Temperature 51 °F 41 °F 68 °F (1982)
Min Temperature 19 °F 22 °F -11 °F (1940)
Degree Days  
Heating Degree Days 30 34  
Month to date heating degree days 124 132  
Since 1 July heating degree days 1374 1692  
Cooling Degree Days 0 0  
Month to date cooling degree days 0 0  
Year to date cooling degree days 561 452  
Moisture  
Dew Point 29 °F    
Average Humidity 74    
Maximum Humidity 96    
Minimum Humidity 52    
Precipitation  
Precipitation 0.00 in 0.11 in 1.53 in (1990)
Month to date precipitation 0.00 0.44  
Year to date precipitation 50.71 37.85  
Snow  
Snow 0.00 in 0.40 in 14.80 in (1901)
Month to date snowfall 0.0 1.4  
Since 1 July snowfall 25.7 4.0  
Snow Depth 0.00 in    
Sea Level Pressure  
Sea Level Pressure 30.49 in    
Wind  
Wind Speed 5 mph (SSE)    
Max Wind Speed 14 mph    
Max Gust Speed 20 mph    
Visibility 9 miles    
Events      
T = Trace of Precipitation, MM = Missing Value Source: NWS Daily Summary

Daily Weather History Graph

Daily Weather History Graph

Search for Another Location

Airport:

Trip Planner

Search our weather history database for the weather conditions in past years. The results will help you decide how hot, cold, wet, or windy it might be!

Date:

Astronomy

Dec. 04, 2011 Rise Set
Actual Time 7:01 AM EST 4:11 PM EST
Civil Twilight 6:28 AM EST 4:43 PM EST
Nautical Twilight 5:53 AM EST 5:18 PM EST
Astronomical Twilight 5:19 AM EST 5:53 PM EST
Moon 12:46 PM EST (12/4) 1:15 AM EST (12/4)
Length of Visible Light 10h 14m
Length of Day
9h 10m
Waxing Gibbous, 71% of the Moon is Illuminated
Dec 4
Waxing Gibbous
Dec 10
Full
Dec 17
Last Quarter
Dec 24
New
Jan 1
First Quarter

Hourly Weather History & Observations

Time (EST) Temp. Windchill Dew Point Humidity Pressure Visibility Wind Dir Wind Speed Gust Speed Precip Events Conditions
12:51 AM 23.0 °F - 21.0 °F 92% 30.62 in 7.0 mi Calm Calm - N/A   Clear
1:51 AM 23.0 °F - 21.0 °F 92% 30.61 in 8.0 mi Calm Calm - N/A   Clear
2:51 AM 23.0 °F - 21.0 °F 92% 30.60 in 8.0 mi Calm Calm - N/A   Clear
3:51 AM 21.0 °F 16.2 °F 19.9 °F 96% 30.58 in 9.0 mi South 3.5 mph - N/A   Clear
4:51 AM 21.9 °F - 19.9 °F 92% 30.59 in 6.0 mi Calm Calm - N/A   Clear
5:51 AM 21.2 °F - 17.6 °F 86% 30.57 in 7.0 mi Calm Calm - N/A   Partly Cloudy
6:51 AM 21.0 °F - 19.0 °F 92% 30.58 in 7.0 mi Calm Calm - N/A   Clear
7:46 AM 23.0 °F - 21.2 °F 93% 30.56 in 6.0 mi Calm Calm - N/A   Mostly Cloudy
7:51 AM 24.1 °F - 21.9 °F 91% 30.58 in 6.0 mi Calm Calm - N/A   Mostly Cloudy
8:44 AM 28.4 °F 24.6 °F 26.6 °F 93% 30.54 in 6.0 mi SSE 3.5 mph - N/A   Partly Cloudy
8:51 AM 30.0 °F 26.5 °F 28.0 °F 92% 30.56 in 7.0 mi SSE 3.5 mph - N/A   Partly Cloudy
9:51 AM 39.0 °F 32.8 °F 32.0 °F 76% 30.54 in 10.0 mi SE 9.2 mph - N/A   Clear
10:51 AM 43.0 °F 38.2 °F 33.1 °F 68% 30.51 in 10.0 mi SE 8.1 mph - N/A   Clear
11:51 AM 46.0 °F 41.0 °F 34.0 °F 63% 30.48 in 10.0 mi South 10.4 mph - N/A   Clear
12:51 PM 50.0 °F - 33.1 °F 52% 30.44 in 10.0 mi South 12.7 mph 17.3 mph N/A   Clear
1:51 PM 50.0 °F - 33.1 °F 52% 30.41 in 10.0 mi South 11.5 mph 19.6 mph N/A   Clear
2:51 PM 50.0 °F - 34.0 °F 54% 30.40 in 10.0 mi South 11.5 mph - N/A   Clear
3:51 PM 48.0 °F - 36.0 °F 63% 30.39 in 10.0 mi South 10.4 mph - N/A   Clear
4:51 PM 44.1 °F 40.1 °F 36.0 °F 73% 30.40 in 10.0 mi SSE 6.9 mph - N/A   Clear
5:51 PM 42.1 °F 39.2 °F 36.0 °F 79% 30.39 in 10.0 mi SSE 4.6 mph - N/A   Clear
6:51 PM 39.0 °F 36.8 °F 35.1 °F 86% 30.39 in 10.0 mi South 3.5 mph - N/A   Clear
7:51 PM 39.0 °F 35.7 °F 35.1 °F 86% 30.39 in 10.0 mi SSE 4.6 mph - N/A   Clear
8:51 PM 39.9 °F 37.8 °F 36.0 °F 86% 30.38 in 10.0 mi SE 3.5 mph - N/A   Clear
9:51 PM 39.9 °F 35.8 °F 36.0 °F 86% 30.37 in 10.0 mi SSE 5.8 mph - N/A   Clear
10:51 PM 37.0 °F 32.4 °F 35.1 °F 93% 30.37 in 10.0 mi SE 5.8 mph - N/A   Clear
11:51 PM 37.9 °F - 37.0 °F 97% 30.37 in 10.0 mi Calm Calm - N/A   Clear